KK2Z-13 Weather Reports


Display with metric or nautical units.
time (UTC)temp
F
wind
direction
speed
MPH
gust
MPH
rain 1hr
in
rain 24hr
in
rain mn
in
humidity
%
barometer
mb
20260509201520 86 222 2.0 7.0 0.00 0.00 0.00 53 1007.4
20260509200016 86 275 0.0 5.0 0.00 0.00 0.00 56 1007.5
20260509194514 86 245 2.0 6.0 0.00 0.00 0.00 54 1007.7
20260509193014 85 302 1.0 5.0 0.00 0.00 0.00 57 1007.8
20260509191511 84 274 4.0 9.0 0.00 0.00 0.00 57 1008.1
20260509190008 84 315 0.0 2.0 0.00 0.00 0.00 62 1008.2
20260509184505 83 246 2.0 10.0 0.00 0.00 0.00 63 1008.4
20260509183004 82 256 0.0 9.0 0.00 0.00 0.00 65 1008.9
20260509181503 82 244 0.0 6.0 0.00 0.00 0.00 66 1009.2
20260509180002 82 180 0.0 5.0 0.00 0.00 0.00 65 1009.3
20260509174600 83 234 0.0 5.0 0.00 0.00 0.00 65 1009.3
20260509173057 81 267 0.0 4.0 0.00 0.00 0.00 67 1009.4
20260509171557 81 193 0.0 4.0 0.00 0.00 0.00 68 1009.6
20260509164555 80 194 0.0 5.0 0.00 0.00 0.00 72 1009.8
20260509163051 80 186 1.0 8.0 0.00 0.00 0.00 72 1009.9
20260509161556 80 197 0.0 5.0 0.00 0.00 0.00 72 1009.8
20260509160042 78 255 0.0 6.0 0.00 0.00 0.00 77 1009.6
20260509154539 78 11 0.0 4.0 0.00 0.00 0.00 80 1009.6
20260509153035 77 201 0.0 9.0 0.00 0.00 0.00 81 1009.7
20260509151536 76 234 7.0 12.0 0.00 0.00 0.00 84 1009.2
20260509150035 74 286 4.0 10.0 0.00 0.00 0.00 88 1009.4
20260509144531 73 207 4.0 13.0 0.00 0.00 0.00 89 1009.3
20260509143021 72 242 8.0 11.0 0.00 0.00 0.00 93 1009.1
20260509141521 71 360 7.0 13.0 0.00 0.00 0.00 95 1009.1
20260509140014 69 360 3.0 5.0 0.00 0.00 0.00 96 1009.0
20260509134514 69 119 0.0 1.0 0.00 0.00 0.00 96 1008.9
20260509133014 68 360 0.0 1.0 0.00 0.00 0.00 96 1008.6
20260509131524 68 360 2.0 4.0 0.00 0.00 0.00 96 1008.3
20260509130016 68 360 1.0 5.0 0.00 0.00 0.00 96 1008.0
20260509124510 67 360 2.0 9.0 0.00 0.00 0.00 96 1008.2
20260509123010 66 360 4.0 9.0 0.00 0.00 0.00 95 1008.7
20260509121516 66 360 5.0 9.0 0.00 0.00 0.00 95 1008.4
20260509120007 66 360 0.0 1.0 0.00 0.00 0.00 95 1008.7
20260509114512 66 360 0.0 0.0 0.00 0.00 0.00 95 1009.2
20260509113004 67 360 0.0 3.0 0.00 0.00 0.00 95 1009.6
20260509111504 67 360 0.0 1.0 0.00 0.00 0.00 94 1009.7
20260509110000 67 9 0.0 0.0 0.00 0.00 0.00 94 1010.2
20260509104600 68 360 0.0 2.0 0.00 0.08 0.00 94 1011.0
20260509103058 68 344 0.0 1.0 0.00 0.08 0.00 94 1011.0
20260509101557 69 355 0.0 0.0 0.00 0.08 0.00 94 1010.5
20260509100052 69 355 0.0 0.0 0.00 0.08 0.00 94 1010.3
20260509094551 69 360 0.0 0.0 0.00 0.09 0.00 94 1010.1
20260509093056 69 360 0.0 0.0 0.00 0.09 0.00 94 1009.5
20260509091552 69 360 0.0 0.0 0.00 0.09 0.00 94 1009.6
20260509090050 69 360 0.0 0.0 0.00 0.09 0.00 94 1009.2
20260509084550 69 360 0.0 0.0 0.00 0.09 0.00 94 1009.1
20260509083049 69 360 0.0 0.0 0.00 0.09 0.00 94 1009.2
20260509081550 69 360 0.0 6.0 0.00 0.09 0.00 94 1009.1
20260509080046 69 360 2.0 5.0 0.00 0.09 0.00 94 1009.0
20260509074555 70 360 0.0 0.0 0.00 0.09 0.00 94 1009.7
20260509073045 70 360 0.0 0.0 0.00 0.09 0.00 94 1010.0
20260509071544 70 360 0.0 0.0 0.00 0.09 0.00 94 1010.2
20260509070045 70 360 0.0 1.0 0.00 0.09 0.00 94 1009.7
20260509064557 70 360 0.0 1.0 0.00 0.09 0.00 94 1009.6
20260509063045 70 360 0.0 2.0 0.00 0.09 0.00 93 1009.9
20260509061544 70 360 0.0 2.0 0.00 0.09 0.00 93 1010.3
20260509060041 70 360 0.0 2.0 0.00 0.09 0.00 93 1010.1
20260509054539 70 360 0.0 0.0 0.00 0.09 0.00 93 1010.1
20260509053036 69 360 0.0 0.0 0.00 0.09 0.00 93 1009.7
20260509051536 69 360 0.0 0.0 0.00 0.09 0.00 93 1008.7
20260509050034 69 360 0.0 3.0 0.00 0.09 0.00 93 1008.4
20260509044530 69 360 1.0 5.0 0.00 0.09 0.09 93 1008.3
20260509043029 69 360 0.0 4.0 0.00 0.09 0.09 94 1008.6
20260509041529 69 360 0.0 3.0 0.00 0.09 0.09 94 1008.7
20260509040035 68 360 0.0 2.0 0.00 0.09 0.09 93 1008.8
20260509034541 68 360 0.0 0.0 0.00 0.09 0.09 93 1008.9
20260509033027 69 360 0.0 1.0 0.00 0.09 0.09 92 1008.7
20260509031529 69 360 0.0 1.0 0.00 0.09 0.09 92 1008.5
20260509030027 69 360 0.0 0.0 0.00 0.09 0.09 92 1008.5
20260509024530 69 360 0.0 0.0 0.00 0.09 0.09 91 1008.2
20260509023028 70 360 0.0 2.0 0.00 0.09 0.09 91 1008.1
20260509021525 70 360 0.0 4.0 0.00 0.09 0.09 90 1008.1
20260509020026 71 112 0.0 3.0 0.00 0.09 0.09 89 1008.0
20260509014524 71 111 1.0 3.0 0.00 0.09 0.09 89 1008.1
20260509013024 71 112 0.0 6.0 0.00 0.09 0.09 88 1007.8
20260509011523 71 118 2.0 9.0 0.00 0.09 0.09 88 1007.6
20260509010031 72 128 4.0 9.0 0.00 0.09 0.09 87 1007.5
20260509004533 72 131 6.0 10.0 0.00 0.09 0.09 86 1007.5
20260509003022 73 130 5.0 12.0 0.00 0.09 0.09 85 1007.3
20260509001525 73 136 8.0 14.0 0.00 0.09 0.09 84 1007.5
20260509000020 73 123 5.0 14.0 0.00 0.09 0.09 84 1007.5
20260508234518 73 104 6.0 13.0 0.00 0.09 0.09 84 1007.6
20260508233018 73 103 5.0 11.0 0.00 0.09 0.09 83 1007.7
20260508231517 73 101 8.0 14.0 0.00 0.09 0.09 81 1007.6
20260508230017 73 360 8.0 12.0 0.00 0.09 0.09 81 1007.7
20260508224516 74 360 5.0 11.0 0.00 0.09 0.09 81 1007.7
20260508223015 74 360 8.0 12.0 0.00 0.09 0.09 80 1007.7
20260508221514 74 360 8.0 11.0 0.00 0.09 0.09 79 1007.8
20260508220011 74 120 6.0 12.0 0.00 0.09 0.09 80 1008.0
20260508214510 73 115 10.0 13.0 0.00 0.09 0.09 80 1008.0
20260508213015 73 123 8.0 12.0 0.00 0.09 0.09 81 1008.1
20260508211506 73 126 7.0 13.0 0.00 0.09 0.09 80 1008.3
20260508210003 72 360 6.0 12.0 0.00 0.09 0.09 82 1008.7
20260508204501 73 360 4.0 11.0 0.00 0.09 0.09 83 1008.9
20260508203057 72 360 7.0 10.0 0.00 0.09 0.09 83 1009.2